COSMOS 2251 DEB, 34449

Orbit data source: Space-Track

COSMOS 2251 DEB, 34449 is space debris in LEO originally from a launch on Wed, 16 Jun 1993 UTC launched from the Plesetsk Missile And Space Complex (PKMTR). The debris from Iridium 33, an American commercial communications satellite, has been tracked extensively since its accidental collision with the defunct Russian satellite Cosmos 2251 in 2009. This event, occurring at high speed in low Earth orbit (LEO), generated thousands of pieces of space debris, significantly increasing the risk of further collisions. The Iridium 33 debris cloud has impacted space traffic management and orbital debris mitigation strategies, making it a subject of ongoing study in space situational awareness.

Loading next visibility...
Identifier
34449, 1993-036SS
Orbit
LEO
Country
Flag of CISCIS
Related business
Manufacturer
Unknown
Mission
Spacecraft
Bus & Motor
Unknown
Mass
Unknown
Launch date (UTC)
1993-06-16 (33 years ago)
Launch vehicle
Unknown
Launch site
Plesetsk Missile And Space Complex (PKMTR)
Object type
Payload
Rocket body
Debris
Shape & HBR
Unknown shape, 0.1 m
Radar Cross Section
Medium (>0.1 m² and <1 m²)

Expand to show TLE details & history
Last TLE update: 23 hours ago

TLE from 23 hours ago
0 COSMOS 2251 DEB
1 34449U 93036SS  26207.35021363  .00051892  00000-0  29915-2 0  9998
2 34449  74.0244 329.1958 0016863 333.3300  58.0443 15.12006660920847
Epoch: 2026-07-26T08:24Z
TLE epoch observation values (Epoch: 2026-07-26T08:24:18.457Z)
Latitude
30.2513°
Longitude
-91.37242°
Altitude
527.475 km
Speed
7.606 km/s
True Right ascension
22h 35m 00s
True Declination
30° 05' 49"
Sunlit
Object was in full shadow at epoch
Visualization orbit readout
Latitude
Unknown
Longitude
Unknown
Altitude
Unknown
Speed
Unknown
Apparent Right ascension
Unknown
Apparent Declination
Unknown
Sunlit
N/A
Visualization observer readout
Local Sidereal Time
20:30:19
Azimuth
Unknown
Elevation
Unknown
Doppler factor
Unknown
Orbital elements
Apogee altitude
539.268 km
Perigee altitude
515.978 km
Semi-major axis
6,905.76 km
Eccentricity
0.00169
Inclination
74.0244°
RAAN
329.1958°
Arg. of periapsis
333.33°
True anomaly
58.20844°
Mean anomaly
58.0443°
Eccentric anomaly
58.12635°
Mean motion
3.78204 °/min
Orbital period
95.19 mins
BSTAR
0.0029915
Loading maneuver chart data...
Computing Atmospheric mass density...

Documentation

Showing up to 5 results
|